{"data":{"norad_id":48106,"epoch":"2026-09-19T17:10:37.787232Z","epoch_age_seconds":96926,"freshness":"FRESH","line1":"1 48106U 21027Q   26262.71571513 -.00000692  00000+0 -10509-4 0  9996","line2":"2 48106  53.1605 329.6967 0001332  88.1939 271.9215 15.31716302302416","mean_motion":15.31716302,"eccentricity":0.0001332,"inclination_deg":53.1605,"raan_deg":329.6967,"arg_perigee_deg":88.1939,"mean_anomaly_deg":271.9215,"bstar":-1.0509e-5,"rev_number":30241,"period_min":94.012187382204,"perigee_km":469.77913630002,"apogee_km":471.60366418585,"semimajor_km":6848.8284002429,"source":"CELESTRAK","updated_at":"2026-09-20T09:00:38.763336Z"}}